User: anonymous   Login
Location: Caltech
(34.1382°N, 118.1253°W)
Time: 10:08:43
(UTC-08:00)
Language:

Cosmos 2084 - Orbit

View from above orbital plane
View from above orbital plane
View from above satellite
View from above satellite

Ground track
Ground track

The orbit data is extracted from the following two-line orbital elements,

1 20663U 90055A   16342.81546964  .00000212  00000-0  35813-4 0  9994
2 20663  62.7909 146.7783 0136258  71.2337 290.3483 14.91428032431265
Epoch (UTC): 07 December 2016 19:34:16
Eccentricity: 0.0136258
inclination: 62.7909°
perigee height: 498 km
apogee height: 688 km
right ascension of ascending node: 146.7783°
argument of perigee: 71.2337°
revolutions per day: 14.91428032
mean anomaly at epoch: 290.3483°
orbit number at epoch: 43126

The dashed part of the orbit path shows where the satellite is in the earth's shadow,  

DLR